Location: Gülübeli Geçidi
(36.8411°N, 29.7411°E)
Time: 11:11:24
(UTC+00:00)

CZ-4B DEB - Pass Details

Date: 15 May 2026
Orbit: 833 x 854 km, 98.9° (Epoch: 8 June)

Event Time Altitude Azimuth Distance (km) Brightness Sun altitude
Exits shadow 18:19:24 10° 170° (S) 2,447 6.2 -14.1°
Maximum altitude 18:24:50 79° 256° (WSW) 872 4.3 -15.0°
Drops below altitude 10° 18:30:23 10° 344° (NNW) 2,491 7.5 -15.8°
Sets 18:32:46 0° 346° (NNW) 3,430 8.3 -16.2°
